Regional Weather Roundup
Issued by NWS

Home | Current Version | Previous Version | Text Only | Print | Product List | Glossary Off
Versions: 1 2 3 4 5 6 7 8 9 10 11 12 13 14 15 16 17 18 19 20 21 22 23 24 25 26 27 28 29 30 31 32 33 34 35 36 37 38 39 40 41 42 43 44 45 46 47 48 49 50

229
ASUS45 KBOU 192210
RWRCO

WEATHER ROUNDUP FOR COLORADO
NATIONAL WEATHER SERVICE DENVER/BOULDER CO
300 PM MST SUN NOV 19 2017

NOTE: "FAIR" INDICATES FEW OR NO CLOUDS BELOW 12000 FEET WITH NO
SIGNIFICANT WEATHER AND/OR OBSTRUCTIONS TO VISIBILITY.

COZ001>005-013-030-031-192300-
...NORTHWEST COLORADO...

CITY           SKY/WX    TMP DP  RH WIND       PRES   REMARKS
CRAIG          FAIR      38  19  46 CALM      30.17F
HAYDEN         FAIR      34  22  61 SW3       30.18F
MEEKER         FAIR      44  23  43 CALM      30.17F
RABBIT EARS PA FAIR      28  14  54 W6        30.20F WCI  22
STEAMBOAT SPGS FAIR      38  20  48 CALM      30.16F
WALDEN         FAIR      36  14  41 S10       30.16S
$$

COZ006>008-011-192300-
...WEST CENTRAL VALLEYS...

CITY           SKY/WX    TMP DP  RH WIND       PRES   REMARKS
GRAND JUNCTION FAIR      44  17  33 CALM      30.23F
MONTROSE       FAIR      46  19  34 CALM      30.23F
EAGLE          FAIR      41  16  36 CALM      30.21F
RIFLE          FAIR      41  18  39 W5        30.22F
DELTA          FAIR      49  16  26 SW9       30.22F
NUCLA          FAIR      46   5  18 CALM      30.25F
$$

COZ017>023-064>068-192300-
...SOUTHWEST COLORADO...

CITY           SKY/WX    TMP DP  RH WIND       PRES   REMARKS
DURANGO        FAIR      49  12  22 SW7       30.19F
CORTEZ         FAIR      48  13  24 SW7       30.21F
PAGOSA SPRINGS FAIR      48   7  19 S5        30.21F
TELLURIDE      FAIR      42   3  19 W13       30.26F
WOLF CREEK PAS FAIR      30   3  31 SW12G17   30.35S WCI  21
$$

COZ009-010-012-014-032>034-037-058>063-192300-
...CENTRAL COLORADO...

CITY           SKY/WX    TMP DP  RH WIND       PRES   REMARKS
ASPEN          FAIR      38  25  59 NW6       30.19F
BUENA VISTA    FAIR      47  -1  13 W20G29    30.16S
COPPER MTN     FAIR      32   1  27 MISG      30.25F
BERTHOUD PASS  FAIR      21  10  63 NW36G51   30.20F WCI   2
COTTONWOOD PAS FAIR      43 -11  10 W8G22     30.21S
GUNNISON       FAIR      33  15  47 VRB3      30.26F
KREMMLING      FAIR      45  12  26 E6        30.18F
LEADVILLE      FAIR      36   2  23 NW8       30.20F
MONARCH PASS   FAIR      27  -4  26 W36       30.36S WCI   9
SALIDA         FAIR      51  -2  11 W23G31    30.22F
SUNLIGHT       FAIR      30   5  34 SW13G22   30.28F WCI  20
WILKERSON PASS FAIR      30   1  29 W7        30.24R WCI  23
$$

COZ069>075-192300-
...SAN LUIS VALLEY/SANGRE DE CRISTO MOUNTAINS...

CITY           SKY/WX    TMP DP  RH WIND       PRES   REMARKS
ALAMOSA        FAIR      46   9  22 CALM      30.18F
DEL NORTE      FAIR      44  10  25 SE5       30.21S
LA VETA PASS   FAIR      36   9  32 SW24G32     N/A
SAGUACHE       FAIR      45   9  23 SE7       30.20F
$$

COZ035-036-038>040-192300-
...NORTHERN COLORADO FRONT RANGE...

CITY           SKY/WX    TMP DP  RH WIND       PRES   REMARKS
DENVER INTL AP PTSUNNY   57   7  13 W14       30.01S
DMNS CITY PARK   N/A     56   3  12 NE2G13    30.00S
AURORA         PTSUNNY   56   7  14 N6        30.02S
FRONT RANGE AP PTSUNNY   57  14  18 W7        30.02F
ERIE MUNI ARPT FAIR      52  26  36 S3        30.05F
BOULDER MUN AP FAIR      52  21  30 E6        30.00F
CENTENNIAL     PTSUNNY   57   5  12 NW6       30.02S
BROOMFIELD     PTSUNNY   55   3  12 NW9       30.03S
FORT COLLINS   FAIR      50  24  36 CALM      30.00F
LONGMONT       FAIR      50  22  33 CALM      30.01F
$$

COZ041-046-047-076>085-087-088-192300-
...PIKES PEAK/PALMER DIVIDE AND SOUTHERN FOOTHILLS...

CITY           SKY/WX    TMP DP  RH WIND       PRES   REMARKS
COLO. SPRINGS  PTSUNNY   58  11  15 S5        30.05F
A. F. ACADEMY  FAIR      56   0  10 W18G24    30.04F
SCHRIEVER AFB  FAIR      54   8  15 S7        30.05F
CHEYENNE MTN   FAIR      47  15  27 CALM      30.01F
ELLICOTT       NOT AVBL
FALCON         FAIR      55   0  10 NW9       30.07S
FORT CARSON    FAIR      58  15  18 E5        30.02F
LIMON          FAIR      58   3  11 S10       30.02F
MONUMENT HILL  FAIR      52   9  17 W6        30.08S
CANON CITY     FAIR      63   5  10 W10G16    30.02F
WALSENBURG     FAIR      61   7  11 W18G25    30.05F
TRINIDAD       FAIR      60  10  14 SE6       30.04F
$$

COZ042>045-048>051-090-091-192300-
...NORTHEAST COLORADO...

CITY           SKY/WX    TMP DP  RH WIND       PRES   REMARKS
GREELEY ARPT   FAIR      54  21  27 CALM      30.00F
AKRON          FAIR      59   8  13 W5        29.98F
BURLINGTON     FAIR      61  12  14 SW10      30.01F
WRAY           NOT AVBL
YUMA           FAIR      59   9  13 W6        29.97F
STERLING       FAIR      61  21  21 SW10      29.96F
HOLYOKE        FAIR      61  14  16 SW6       29.97F
FORT MORGAN    FAIR      56  15  19 CALM      29.99F
$$

COZ086-089-092>099-192300-
...SOUTHEAST COLORADO...

CITY           SKY/WX    TMP DP  RH WIND       PRES   REMARKS
PUEBLO         FAIR      64   6  10 SW6       29.99F
LA JUNTA       FAIR      62  17  17 E6        30.00F
LAMAR          FAIR      62  14  15 S3        30.00F
SPRINGFIELD      N/A     59  11  15 S10       30.04F
$$




USA.gov is the U.S. government's official web portal to all federal, state and local government web resources and services.